Вернуться в каталог

OPS 4682 DEB

АктивенPO
NORAD 38457·DEBRIS·🇺🇸 United States

Запущен Apr 3, 1965 с Vandenberg Space Force Base

Loading…

Ближайшие Пролёты (ближайшие 24 часа)

TLE

СвежийSource: Space-Track

Эпоха: Sep 13, 2026, 01:26 UTC

1 38457U 65027FN  26256.05986948  .00000690  00000-0  23102-2 0  9992
2 38457  90.2386   4.1513 0032871 149.8423 210.4600 12.98576023623167

Отслеживайте OPS 4682 DEB в реальном времени с AllMySat

Download on the App Store